"Pseudo-MPEC" for (294004)

Created 2023 Sep 22 11:22:35 UT using Find_Orb

Click here for an explanation of pseudo-MPECs

 
 Astrometry: 
T4004       *1C2023 09 18.30998600 57 26.557+06 41 00.56   ~9ICq 20.87GVNEOCPG96
T4004        1C2023 09 18.31891800 57 30.589+06 39 22.68   ~9ICq 20.72GVNEOCPG96
T4004        1C2023 09 18.32412900 57 32.929+06 38 24.97   ~9ICq 20.78GVNEOCPG96
T4004        1C2023 09 19.30388701 06 08.060+03 42 03.64   ~9J8M 20.83GVNEOCPG96
T4004        1C2023 09 19.30906801 06 10.278+03 41 09.02   ~9J8M 21.02GVNEOCPG96
T4004        1C2023 09 19.31423901 06 12.481+03 40 14.48   ~9J8M 21.11GVNEOCPG96
T4004        1C2023 09 19.31940901 06 14.663+03 39 19.80   ~9J8M 21.11GVNEOCPG96
T4004        1C2023 09 20.11916 01 12 42.51 +01 19 43.9    ~9K8M 20.3 VXNEOCP033
T4004        1C2023 09 20.12054 01 12 43.13 +01 19 29.9    ~9K8M 20.4 VXNEOCP033
T4004        1C2023 09 20.12193 01 12 43.72 +01 19 16.6    ~9K8M 20.9 VXNEOCP033
T4004        1C2023 09 20.12341 01 12 44.32 +01 19 01.3    ~9K8M 21.0 VXNEOCP033
T4004        KC2023 09 20d=4/s=o52g0l!C#:[]C(dl`X+$o8$7UM'gAstrometry;kD-lgdaH21
T4004        KC2023 09 20#dDFkLe]fCyqD#foDSKq4lf%jML273redacted;51[mclick7F*#H21
T4004        KC2023 09 20D)hereNB`n^U8kZc'*+KW1]foroxrK/..explanationH#R+QNEEH21
T4004        1C2023 09 21.10309 01 20 26.48 -01 23 06.7    ~9L2q 20.9 VXNEOCP033
T4004        1C2023 09 21.10453 01 20 27.06 -01 23 20.6    ~9L2q 21.3 VXNEOCP033
T4004        1C2023 09 21.10597 01 20 27.64 -01 23 34.0    ~9L2q 21.5 VXNEOCP033

Station data:
(033) Karl Schwarzschild Observatory, Tautenburg  (N50.980137 E11.711240)
   Germany.  Observer B. Stecklum. 1.34-m f/3 Schmidt + CCD.
(G96) Mt. Lemmon Survey  (N32.442751 W110.788720)  US/Arizona.  Observer E.
   J. Christensen. 1.5-m reflector + 10K CCD.
(H21) Astronomical Research Observatory, Westfield  (N39.483054 W87.968270)
   US/Illinois.  Observer R. Holmes. Measurers S. Foglia, L. Buzzi, T.
   Linder, R. Holmes. 0.76-m f/3.0 astrograph + CCD0.81-m f/4.0 astrograph +
   CCD0.61-m f/4.5 astrograph + CCD0.40-m f/5.32 astrograph + CCD.

Orbital elements:  (294004)
   Perihelion 2023 Sep 8.68838 +/- 0.0188 TT = 16:31:15 (JD 2460196.18838)
Epoch 2023 Sep 21.0 TT = JDT 2460208.5   Earth MOID: 0.0317      AutoNEOCP
M   9.23962744 +/- 0.007            (J2000 ecliptic)
n   0.75048016 +/- 0.000626         Peri.  170.27419 +/- 0.019
a   1.19925049 +/- 0.000667         Node   175.64477 +/- 0.0016
e   0.1363648 +/- 0.000421          Incl.    7.08080 +/- 0.017
P   1.31/479.68d           H 27.26  G  0.15   U  7.8
q 1.03571490 +/- 7.16e-5    Q 1.36278608 +/- 0.00126
From 17 observations 2023 Sept. 18-21; mean residual 0".27
Residuals in arcseconds: 
230918 G96  .09+  .33+    230919 G96  .08-  .14-    230920 H21  .08-  .31+    
230918 G96  .05+  .26+    230920 033  .05+  .66-    230920 H21  .17-  .55+    
230918 G96  .07-  .36-    230920 033  .40+  .58-    230921 033  .04-  .28-    
230919 G96  .19-  .28-    230920 033  .22+  .31+    230921 033  .00   .29-    
230919 G96  .02-  .17-    230920 033  .39-  .12+    230921 033  .03+  .20+    
230919 G96  .07+  .08-    230920 H21  .16+  .29+    

Ephemerides (geocentric):
Date (UTC) HH   RA             Dec           delta  r     elong  mag " sig PA
---- --------  ------------   ------------  ------ ------ -----  --- --------
2023 09 22 11  01 30 23.017   -04 49 14.30  .03864 1.0393 156.0 21.4 .656  34
2023 09 22 12  01 30 40.396   -04 55 22.97  .03869 1.0393 155.9 21.4 .661  35
2023 09 22 13  01 30 57.728   -05 01 30.60  .03875 1.0393 155.9 21.4 .666  35
2023 09 22 14  01 31 15.011   -05 07 37.18  .03880 1.0393 155.8 21.4 .672  35
2023 09 22 15  01 31 32.247   -05 13 42.71  .03885 1.0393 155.8 21.4 .677  36
2023 09 22 16  01 31 49.436   -05 19 47.18  .03890 1.0394 155.7 21.4 .682  36
2023 09 22 17  01 32 06.576   -05 25 50.61  .03896 1.0394 155.7 21.4 .687  36
2023 09 22 18  01 32 23.670   -05 31 52.99  .03901 1.0394 155.6 21.4 .693  37
2023 09 22 19  01 32 40.716   -05 37 54.31  .03906 1.0394 155.5 21.4 .698  37
2023 09 22 20  01 32 57.714   -05 43 54.59  .03912 1.0395 155.5 21.4 .703  37
2023 09 22 21  01 33 14.665   -05 49 53.81  .03917 1.0395 155.4 21.4 .708  38
2023 09 22 22  01 33 31.570   -05 55 51.97  .03923 1.0395 155.4 21.4 .714  38
2023 09 22 23  01 33 48.427   -06 01 49.09  .03928 1.0395 155.3 21.4 .719  38
2023 09 23 00  01 34 05.237   -06 07 45.15  .03933 1.0395 155.3 21.4 .725  38
2023 09 23 01  01 34 22.000   -06 13 40.16  .03939 1.0396 155.2 21.4 .730  39
2023 09 23 02  01 34 38.717   -06 19 34.11  .03944 1.0396 155.1 21.5 .735  39
2023 09 23 03  01 34 55.387   -06 25 27.01  .03950 1.0396 155.1 21.5 .741  39
2023 09 23 04  01 35 12.010   -06 31 18.86  .03955 1.0396 155.0 21.5 .746  39
2023 09 23 05  01 35 28.586   -06 37 09.65  .03961 1.0397 155.0 21.5 .752  40
2023 09 23 06  01 35 45.116   -06 42 59.39  .03967 1.0397 154.9 21.5 .757  40
2023 09 23 07  01 36 01.600   -06 48 48.08  .03972 1.0397 154.9 21.5 .763  40
2023 09 23 08  01 36 18.037   -06 54 35.71  .03978 1.0397 154.8 21.5 .769  40
2023 09 23 09  01 36 34.429   -07 00 22.29  .03983 1.0397 154.7 21.5 .774  41
2023 09 23 10  01 36 50.774   -07 06 07.81  .03989 1.0398 154.7 21.5 .780  41
2023 09 23 11  01 37 07.073   -07 11 52.29  .03995 1.0398 154.6 21.5 .785  41
2023 09 23 12  01 37 23.326   -07 17 35.71  .04000 1.0398 154.6 21.5 .791  41
2023 09 23 13  01 37 39.533   -07 23 18.08  .04006 1.0398 154.5 21.5 .797  42
2023 09 23 14  01 37 55.694   -07 28 59.39  .04012 1.0399 154.4 21.5 .802  42
2023 09 23 15  01 38 11.810   -07 34 39.66  .04018 1.0399 154.4 21.5 .808  42
2023 09 23 16  01 38 27.880   -07 40 18.87  .04023 1.0399 154.3 21.5 .814  42
2023 09 23 17  01 38 43.905   -07 45 57.04  .04029 1.0399 154.3 21.5 .819  43
2023 09 23 18  01 38 59.884   -07 51 34.15  .04035 1.0399 154.2 21.5 .825  43
2023 09 23 19  01 39 15.818   -07 57 10.22  .04041 1.0400 154.1 21.5 .831  43
2023 09 23 20  01 39 31.706   -08 02 45.23  .04047 1.0400 154.1 21.5 .837  43
2023 09 23 21  01 39 47.549   -08 08 19.20  .04053 1.0400 154.0 21.5 .842  43
2023 09 23 22  01 40 03.348   -08 13 52.13  .04058 1.0400 154.0 21.5 .848  44
2023 09 23 23  01 40 19.101   -08 19 24.01  .04064 1.0401 153.9 21.6 .854  44
2023 09 24 00  01 40 34.809   -08 24 54.84  .04070 1.0401 153.8 21.6 .860  44
2023 09 24 01  01 40 50.473   -08 30 24.62  .04076 1.0401 153.8 21.6 .866  44
2023 09 24 02  01 41 06.092   -08 35 53.37  .04082 1.0401 153.7 21.6 .871  44
2023 09 24 03  01 41 21.666   -08 41 21.07  .04088 1.0402 153.7 21.6 .877  45
2023 09 24 04  01 41 37.195   -08 46 47.73  .04094 1.0402 153.6 21.6 .883  45
2023 09 24 05  01 41 52.681   -08 52 13.35  .04100 1.0402 153.5 21.6 .889  45
2023 09 24 06  01 42 08.121   -08 57 37.93  .04106 1.0402 153.5 21.6 .895  45
2023 09 24 07  01 42 23.518   -09 03 01.47  .04112 1.0403 153.4 21.6 .901  45
2023 09 24 08  01 42 38.870   -09 08 23.98  .04118 1.0403 153.4 21.6 .907  46
2023 09 24 09  01 42 54.178   -09 13 45.45  .04124 1.0403 153.3 21.6 .913  46
2023 09 24 10  01 43 09.442   -09 19 05.88  .04130 1.0403 153.2 21.6 .919  46